Location: Asheville, NC
(35.6000°N, 82.5500°W)
Time: 03:07:05
(UTC-04:00)

DOVE 4 - Pass Details

Date: 12 March 2018
Orbit: 589 x 803 km, 97.7° (Epoch: 19 June)

Event Time Altitude Azimuth Distance (km) Brightness Sun altitude
Rises 06:12:01 0° 10° (N) 3,303 ? -19.7°
Reaches altitude 10° 06:14:24 10° 9° (N) 2,355 ? -19.2°
Maximum altitude 06:19:37 79° 284° (WNW) 785 ? -18.2°
Drops below altitude 10° 06:24:34 10° 198° (SSW) 2,236 ? -17.2°
Sets 06:26:47 0° 197° (SSW) 3,123 ? -16.7°
